Pittsburgh, PA

1:33 AM EST on January 23, 2018 (GMT -0500)
Pittsburgh International

Weather History for KPIT - January, 2012

Change the Weather History Date:

Wednesday, January 4, 2012

  Actual Average Record
Temperature  
Mean Temperature 19 °F 29 °F  
Max Temperature 29 °F 36 °F 68 °F (1950)
Min Temperature 9 °F 21 °F -8 °F (1981)
Degree Days  
Heating Degree Days 46 36  
Month to date heating degree days 154 144  
Since 1 July heating degree days 1991 2319  
Cooling Degree Days 0 0  
Month to date cooling degree days 0 0  
Year to date cooling degree days 0 0  
Moisture  
Dew Point 10 °F    
Average Humidity 63    
Maximum Humidity 83    
Minimum Humidity 42    
Precipitation  
Precipitation T in 0.09 in 1.82 in (2004)
Month to date precipitation 0.20 0.35  
Year to date precipitation 0.20 0.35  
Snow  
Snow T in 0.30 in 12.40 in (1994)
Month to date snowfall 4.8 1.3  
Since 1 July snowfall 7.6 12.0  
Snow Depth 2.00 in    
Sea Level Pressure  
Sea Level Pressure 30.12 in    
Wind  
Wind Speed 8 mph (SSW)    
Max Wind Speed 16 mph    
Max Gust Speed 23 mph    
Visibility 10 miles    
Events Snow    
T = Trace of Precipitation, MM = Missing Value Source: NWS Daily Summary

Daily Weather History Graph

Daily Weather History Graph

Search for Another Location

Airport or City:

Trip Planner

Search our weather history database for the weather conditions in past years. The results will help you decide how hot, cold, wet, or windy it might be!

Date:

Astronomy

Jan. 04, 2012 Rise Set
Actual Time 7:44 AM EST 5:07 PM EST
Civil Twilight 7:13 AM EST 5:37 PM EST
Nautical Twilight 6:39 AM EST 6:11 PM EST
Astronomical Twilight 6:06 AM EST 6:44 PM EST
Moon 1:29 PM EST (1/4) 3:31 AM EST (1/4)
Length of Visible Light 10h 23m
Length of Day
9h 22m
Waxing Gibbous, 80% of the Moon is Illuminated
Jan 4
Waxing Gibbous
Jan 9
Full
Jan 16
Last Quarter
Jan 23
New
Jan 30
First Quarter

Hourly Weather History & Observations

Time (EST) Temp. Windchill Dew Point Humidity Pressure Visibility Wind Dir Wind Speed Gust Speed Precip Events Conditions
12:32 AM 10.4 °F - 5.0 °F 79% 30.22 in 10.0 mi Calm Calm - 0.00 in Snow Light Snow
12:51 AM 10.9 °F 4.7 °F 5.0 °F 77% 30.30 in 9.0 mi SSE 3.5 mph - 0.00 in Snow Light Snow
1:23 AM 10.4 °F - 5.0 °F 79% 30.21 in 10.0 mi Calm Calm - 0.00 in   Scattered Clouds
1:51 AM 10.0 °F - 6.1 °F 84% 30.30 in 10.0 mi Calm Calm - 0.00 in   Scattered Clouds
2:51 AM 10.4 °F - 6.8 °F 85% 30.22 in 10.0 mi Calm Calm - N/A   Overcast
3:51 AM 10.9 °F 4.7 °F 7.0 °F 84% 30.29 in 10.0 mi SSW 3.5 mph - N/A   Overcast
4:51 AM 10.9 °F 2.9 °F 6.1 °F 81% 30.28 in 10.0 mi South 4.6 mph - N/A   Scattered Clouds
5:51 AM 10.0 °F 1.8 °F 5.0 °F 80% 30.26 in 10.0 mi South 4.6 mph - N/A   Scattered Clouds
6:51 AM 10.4 °F -0.4 °F 6.8 °F 85% 30.15 in 10.0 mi South 6.9 mph - N/A   Scattered Clouds
7:51 AM 14.0 °F 3.9 °F 8.6 °F 79% 30.13 in 10.0 mi South 6.9 mph - N/A   Overcast
8:51 AM 17.1 °F 5.0 °F 9.0 °F 71% 30.21 in 10.0 mi South 10.4 mph - N/A   Overcast
9:51 AM 19.4 °F 7.9 °F 10.4 °F 68% 30.10 in 6.0 mi South 10.4 mph - N/A   Haze
10:51 AM 21.9 °F 10.4 °F 10.0 °F 60% 30.14 in 9.0 mi South 11.5 mph - N/A   Overcast
11:51 AM 25.0 °F 12.6 °F 10.0 °F 53% 30.09 in 10.0 mi SSW 15.0 mph 20.7 mph N/A   Overcast
12:51 PM 27.0 °F 16.1 °F 9.0 °F 47% 30.05 in 10.0 mi SW 12.7 mph 19.6 mph N/A   Overcast
1:51 PM 28.0 °F 17.5 °F 9.0 °F 45% 30.04 in 10.0 mi WSW 12.7 mph 18.4 mph N/A   Overcast
2:51 PM 28.0 °F 18.6 °F 10.9 °F 49% 30.03 in 10.0 mi SW 10.4 mph - N/A   Overcast
3:51 PM 28.0 °F 17.0 °F 10.9 °F 49% 30.01 in 10.0 mi SSW 13.8 mph 19.6 mph N/A   Mostly Cloudy
4:51 PM 28.0 °F 20.8 °F 12.0 °F 51% 30.00 in 10.0 mi SSW 6.9 mph - N/A   Mostly Cloudy
5:51 PM 28.0 °F 20.8 °F 12.0 °F 51% 30.01 in 10.0 mi SSW 6.9 mph - N/A   Scattered Clouds
6:51 PM 27.0 °F 20.5 °F 12.0 °F 53% 30.03 in 10.0 mi SSW 5.8 mph - N/A   Mostly Cloudy
7:51 PM 27.0 °F 18.0 °F 16.0 °F 63% 30.02 in 10.0 mi SSW 9.2 mph - N/A   Mostly Cloudy
8:51 PM 27.0 °F 18.0 °F 19.0 °F 72% 30.02 in 10.0 mi WSW 9.2 mph - N/A   Overcast
9:51 PM 27.0 °F 18.0 °F 19.9 °F 75% 30.01 in 10.0 mi WSW 9.2 mph - N/A   Overcast
10:51 PM 28.0 °F 21.7 °F 21.0 °F 75% 30.01 in 10.0 mi WSW 5.8 mph - N/A   Overcast
11:51 PM 28.9 °F 20.4 °F 19.9 °F 69% 29.99 in 10.0 mi WSW 9.2 mph - N/A   Overcast